sat.trackr.live / text

‹ back to catalog

KUIPER-00540

NORAD 69609 · 2026-140T

PAYLOAD ACTIVE UNKNOWN

§ Identity

Operator
Country
US
Launch date
2026-06-17
Launch site
FRGUI
Launch vehicle
Mass (kg)
RCS (m²)

External: N2YO · Heavens-Above · Gunter

§ Orbital elements

Epoch: 2026-09-19T16:59:49.520256Z

Period
93.61 min
Inclination
51.8821°
Eccentricity
0.0005050
Mean motion
15.38334333 rev/d
Perigee alt
447.6 km
Apogee alt
454.5 km
Semi-major
6,829.2 km
B*
3.8990e-4
RAAN
301.7827°
Arg perigee
268.0567°
Mean anomaly
91.9841°
Rev number
1,577

§ Raw data

KUIPER-005401 69609U 26140T   26262.70821204  .00014604  00000+0  38990-3 0  99912 69609  51.8821 301.7827 0005050 268.0567  91.9841 15.38334333 15777

JSON: /api/v1/satellites/69609 · /tle

For live sub-satellite position, see the globe view (requires WebGL).

§ Visibility from observer

Set your observer location to see the next 7 days of passes ≥ 10°. The values pass through the URL so the page stays shareable.

No JS? Fill the form by hand. The geolocation button needs JavaScript.